Valley City, ND

8:51 AM CDT on August 29, 2016 (GMT -0500)
Valley City

Weather History for KBAC - December, 2013

Change the Weather History Date:

Friday, December 20, 2013

  Actual Average (KJMS) Record (KJMS)
Temperature  
Mean Temperature -4 °F 13 °F  
Max Temperature 5 °F 22 °F 50 °F (1957)
Min Temperature -13 °F 4 °F -39 °F (1916)
Degree Days  
Heating Degree Days 69 52  
Month to date heating degree days 988  
Since 1 July heating degree days 3072  
Cooling Degree Days 0 0  
Month to date cooling degree days 0  
Year to date cooling degree days 446  
Moisture  
Dew Point -6 °F    
Average Humidity 87    
Maximum Humidity 100    
Minimum Humidity 77    
Precipitation  
Precipitation 0.00 in 0.02 in 1.20 in (1894)
Month to date precipitation 0.25  
Year to date precipitation 18.62  
Sea Level Pressure  
Sea Level Pressure 29.92 in    
Wind  
Wind Speed 8 mph (SW)    
Max Wind Speed 15 mph    
Max Gust Speed -    
Visibility 10 miles    
Events Snow    
T = Trace of Precipitation, MM = Missing Value Source: NWS Daily Summary

Daily Weather History Graph

Daily Weather History Graph

Search for Another Location

Airport or City:

Trip Planner

Search our weather history database for the weather conditions in past years. The results will help you decide how hot, cold, wet, or windy it might be!

Date:

Astronomy

Dec. 20, 2013 Rise Set
Actual Time 8:14 AM CST 4:45 PM CST
Civil Twilight 7:38 AM CST 5:20 PM CST
Nautical Twilight 7:00 AM CST 5:59 PM CST
Astronomical Twilight 6:23 AM CST 6:36 PM CST
Moon 8:18 PM CST (12/20) 9:58 AM CST (12/20)
Length of Visible Light 9h 42m
Length of Day
8h 31m
Waning Gibbous, 90% of the Moon is Illuminated
Dec 20
Waning Gibbous
Dec 25
Last Quarter
Jan 1
New
Jan 7
First Quarter
Jan 15
Full

Hourly Weather History & Observations

Time (CST) Temp. Windchill Dew Point Humidity Pressure Visibility Wind Dir Wind Speed Gust Speed Precip Events Conditions
12:15 AM -4.0 °F -20.2 °F -7.6 °F 85% 30.13 in 10.0 mi NNW 9.2 mph - N/A   Mostly Cloudy
12:35 AM -4.0 °F -21.2 °F -7.6 °F 85% 30.13 in 10.0 mi NW 10.4 mph - N/A   Mostly Cloudy
12:55 AM -4.0 °F -20.2 °F -7.6 °F 85% 30.12 in 10.0 mi NNW 9.2 mph - N/A   Mostly Cloudy
1:15 AM -4.0 °F -19.0 °F -7.6 °F 85% 30.11 in 10.0 mi NNW 8.1 mph - N/A   Mostly Cloudy
1:35 AM -4.0 °F -20.2 °F -7.6 °F 85% 30.11 in 10.0 mi NNW 9.2 mph - N/A   Mostly Cloudy
1:55 AM -4.0 °F -19.0 °F -7.6 °F 85% 30.10 in 10.0 mi NNW 8.1 mph - N/A   Scattered Clouds
2:15 AM -5.8 °F -19.9 °F -9.4 °F 84% 30.09 in 10.0 mi NW 6.9 mph - N/A   Clear
2:35 AM -7.6 °F -22.1 °F -11.2 °F 84% 30.09 in 10.0 mi NW 6.9 mph - N/A   Clear
2:55 AM -7.6 °F -16.5 °F -9.4 °F 92% 30.09 in 10.0 mi NW 3.5 mph - N/A   Clear
3:15 AM -5.8 °F -14.5 °F -9.4 °F 84% 30.08 in 10.0 mi West 3.5 mph - N/A   Clear
3:35 AM -5.8 °F -16.7 °F -9.4 °F 84% 30.09 in 10.0 mi NW 4.6 mph - N/A   Clear
3:55 AM -5.8 °F -16.7 °F -9.4 °F 84% 30.08 in 10.0 mi WNW 4.6 mph - N/A   Partly Cloudy
4:15 AM -7.6 °F -22.1 °F -11.2 °F 84% 30.07 in 10.0 mi WNW 6.9 mph - N/A   Partly Cloudy
4:35 AM -7.6 °F -18.8 °F -11.2 °F 84% 30.06 in 10.0 mi West 4.6 mph - N/A   Partly Cloudy
4:55 AM -9.4 °F -24.3 °F -11.2 °F 92% 30.05 in 10.0 mi WNW 6.9 mph - N/A   Clear
5:15 AM -7.6 °F -22.1 °F -11.2 °F 84% 30.05 in 10.0 mi SW 6.9 mph - N/A   Clear
5:35 AM -9.4 °F -20.9 °F -13.0 °F 84% 30.04 in 10.0 mi WSW 4.6 mph - N/A   Clear
5:55 AM -7.6 °F -20.6 °F -11.2 °F 84% 30.03 in 10.0 mi West 5.8 mph - N/A   Clear
6:15 AM -7.6 °F - -11.2 °F 84% 30.02 in 10.0 mi Calm Calm - N/A   Clear
6:35 AM -9.4 °F -18.6 °F -13.0 °F 84% 30.02 in 10.0 mi SSW 3.5 mph - N/A   Clear
6:55 AM -11.2 °F -20.6 °F -16.6 °F 77% 30.01 in - SW 3.5 mph - N/A   Clear
7:15 AM -11.2 °F -23.0 °F -16.6 °F 77% 30.00 in - SSW 4.6 mph - N/A   Clear
7:35 AM -11.2 °F -23.0 °F -14.8 °F 84% 29.99 in - South 4.6 mph - N/A   Unknown
7:55 AM -11.2 °F - -14.8 °F 84% 29.99 in - Calm Calm - N/A   Unknown
8:15 AM -9.4 °F -18.6 °F -13.0 °F 84% 29.99 in 9.0 mi SSW 3.5 mph - N/A   Clear
8:35 AM -13.0 °F -27.0 °F -16.6 °F 84% 29.99 in 10.0 mi South 5.8 mph - N/A   Clear
8:55 AM -13.0 °F -27.0 °F -16.6 °F 84% 29.99 in - South 5.8 mph - N/A   Unknown
9:15 AM -11.2 °F -24.8 °F -16.6 °F 77% 29.98 in 10.0 mi South 5.8 mph - N/A   Clear
9:35 AM -11.2 °F -23.0 °F -14.8 °F 84% 29.98 in - SSW 4.6 mph - N/A   Unknown
9:55 AM -11.2 °F -24.8 °F -13.0 °F 92% 29.98 in 10.0 mi SSW 5.8 mph - N/A   Scattered Clouds
10:15 AM -9.4 °F -20.9 °F -13.0 °F 84% 29.97 in - SSW 4.6 mph - N/A   Overcast
10:35 AM -7.6 °F -20.6 °F -11.2 °F 84% 29.97 in - SSW 5.8 mph - N/A   Overcast
10:55 AM -5.8 °F -21.2 °F -9.4 °F 84% 29.97 in - SSW 8.1 mph - N/A   Overcast
11:15 AM -4.0 °F -20.2 °F -7.6 °F 85% 29.95 in - SSW 9.2 mph - N/A   Unknown
11:35 AM -0.4 °F -14.7 °F -4.0 °F 85% 29.94 in - South 8.1 mph - N/A   Unknown
11:55 AM -0.4 °F -18.4 °F -2.2 °F 92% 29.92 in - South 12.7 mph - N/A   Unknown
12:15 PM -0.4 °F -16.7 °F -2.2 °F 92% 29.91 in - South 10.4 mph - N/A   Mostly Cloudy
12:35 PM 1.4 °F -14.5 °F -0.4 °F 92% 29.91 in 10.0 mi South 10.4 mph - N/A   Overcast
12:55 PM 1.4 °F -14.5 °F -0.4 °F 92% 29.90 in - SSW 10.4 mph - N/A   Unknown
1:15 PM 1.4 °F -17.6 °F -0.4 °F 92% 29.88 in - SSW 15.0 mph - N/A   Unknown
1:35 PM 5.0 °F -11.6 °F 1.4 °F 85% 29.88 in 10.0 mi SW 12.7 mph - N/A   Clear
1:55 PM 5.0 °F -12.3 °F 1.4 °F 85% 29.86 in 10.0 mi SW 13.8 mph - N/A Snow Light Snow
2:15 PM 5.0 °F -10.8 °F 1.4 °F 85% 29.85 in 10.0 mi SSW 11.5 mph - N/A   Scattered Clouds
2:35 PM 5.0 °F -9.1 °F 1.4 °F 85% 29.85 in 10.0 mi SSW 9.2 mph - N/A   Clear
3:15 PM 5.0 °F -8.1 °F 1.4 °F 85% 29.84 in - SSW 8.1 mph - N/A   Unknown
3:35 PM 5.0 °F -9.1 °F 1.4 °F 85% 29.84 in 10.0 mi SSW 9.2 mph - N/A   Partly Cloudy
3:55 PM 5.0 °F -10.8 °F 1.4 °F 85% 29.83 in - SSW 11.5 mph - N/A   Unknown
4:15 PM 5.0 °F -8.1 °F -0.4 °F 78% 29.82 in - South 8.1 mph - N/A   Unknown
4:35 PM 3.2 °F -10.3 °F -0.4 °F 85% 29.82 in - South 8.1 mph - N/A   Unknown
4:55 PM 3.2 °F -11.3 °F -0.4 °F 85% 29.81 in - SSW 9.2 mph - N/A   Unknown
5:15 PM 1.4 °F -12.5 °F -0.4 °F 92% 29.81 in - SSW 8.1 mph - N/A   Unknown
5:35 PM 3.2 °F -9.1 °F -0.4 °F 85% 29.81 in - South 6.9 mph - N/A   Unknown
5:55 PM 1.4 °F -9.9 °F -0.4 °F 92% 29.80 in - SSW 5.8 mph - N/A   Unknown
6:15 PM 1.4 °F -9.9 °F -0.4 °F 92% 29.80 in - South 5.8 mph - N/A   Unknown
6:35 PM 1.4 °F -11.3 °F -0.4 °F 92% 29.79 in - South 6.9 mph - N/A   Unknown
6:55 PM 1.4 °F -14.5 °F -0.4 °F 92% 29.78 in - South 10.4 mph - N/A   Unknown
7:15 PM 1.4 °F -11.3 °F -0.4 °F 92% 29.78 in 10.0 mi South 6.9 mph - N/A   Partly Cloudy
7:35 PM 1.4 °F -12.5 °F -0.4 °F 92% 29.79 in - SSW 8.1 mph - N/A   Unknown
7:55 PM -0.4 °F -16.7 °F -2.2 °F 92% 29.78 in - SSW 10.4 mph - N/A   Mostly Cloudy
8:15 PM -0.4 °F -15.7 °F -2.2 °F 92% 29.78 in - SSW 9.2 mph - N/A   Unknown
8:35 PM -0.4 °F -14.7 °F -0.4 °F 100% 29.78 in - South 8.1 mph - N/A   Mostly Cloudy
8:55 PM -0.4 °F -16.7 °F -0.4 °F 100% 29.77 in - SSW 10.4 mph - N/A   Unknown
9:15 PM -0.4 °F -16.7 °F -0.4 °F 100% 29.77 in - South 10.4 mph - N/A   Mostly Cloudy
9:35 PM -0.4 °F -16.7 °F -2.2 °F 92% 29.77 in - SSW 10.4 mph - N/A   Overcast
9:55 PM -0.4 °F -16.7 °F -2.2 °F 92% 29.77 in - SSW 10.4 mph - N/A   Overcast
10:15 PM -0.4 °F -16.7 °F -2.2 °F 92% 29.77 in - SSW 10.4 mph - N/A   Mostly Cloudy
10:35 PM 1.4 °F -14.5 °F -0.4 °F 92% 29.77 in - SSW 10.4 mph - N/A   Mostly Cloudy
10:55 PM 1.4 °F -13.5 °F -0.4 °F 92% 29.78 in 10.0 mi SW 9.2 mph - N/A   Overcast
11:15 PM 1.4 °F -12.5 °F -0.4 °F 92% 29.78 in 10.0 mi SW 8.1 mph - N/A   Overcast
11:35 PM 1.4 °F -11.3 °F -0.4 °F 92% 29.78 in 10.0 mi SW 6.9 mph - N/A   Overcast
11:55 PM 1.4 °F -9.9 °F -0.4 °F 92% 29.79 in 10.0 mi SW 5.8 mph - N/A   Overcast